SM4TUV Weather Reports


time (UTC)temp
F
wind
direction
speed
knots
gust
knots
rain 1hr
in
rain 24hr
in
rain mn
in
humidity
%
barometer
mb
20260503022632 39 65 7.8 10.4 0.00 0.00 0.00 70 978.2
20260503021731 39 67 7.0 11.3 0.00 0.00 0.00 70 978.1
20260503020831 39 50 9.6 12.2 0.00 0.00 0.00 70 978.3
20260503015031 40 52 11.3 14.8 0.00 0.00 0.00 69 978.1
20260503014131 40 61 9.6 13.9 0.00 0.00 0.00 69 978.0
20260503013231 40 38 9.6 13.9 0.00 0.00 0.00 69 978.0
20260503011431 40 42 8.7 12.2 0.00 0.00 0.00 69 978.0
20260503010531 40 41 7.8 8.7 0.00 0.00 0.00 70 978.0
20260503005632 40 56 7.0 9.6 0.00 0.00 0.00 70 977.8
20260503004731 41 55 7.8 9.6 0.00 0.00 0.00 71 977.8
20260503002931 41 51 9.6 12.2 0.00 0.00 0.00 72 977.7
20260503002031 41 67 8.7 11.3 0.00 0.00 0.00 72 977.6
20260503001132 41 25 7.0 9.6 0.00 0.00 0.00 72 977.5
20260503000233 41 38 7.8 10.4 0.00 0.00 0.00 72 977.4
20260502235331 42 57 8.7 10.4 0.00 0.00 0.00 73 977.4
20260502234431 42 50 8.7 12.2 0.00 0.00 0.00 73 977.3
20260502233531 42 46 8.7 13.0 0.00 0.00 0.00 73 977.1
20260502232632 42 88 10.4 13.0 0.00 0.00 0.00 73 977.2
20260502230831 42 46 11.3 11.3 0.00 0.00 0.00 72 976.9
20260502225931 43 62 12.2 18.2 0.00 0.00 0.00 71 976.9
20260502225031 43 59 11.3 16.5 0.00 0.00 0.00 71 976.4
20260502224131 44 45 11.3 17.4 0.00 0.00 0.00 71 976.5
20260502223231 44 63 14.8 20.9 0.00 0.00 0.00 71 976.4
20260502222331 45 62 12.2 20.9 0.00 0.00 0.00 71 976.3
20260502221431 46 55 11.3 14.8 0.00 0.00 0.00 71 976.3
20260502220531 46 47 13.9 19.1 0.00 0.00 0.00 70 976.2
20260502215632 47 34 15.6 20.0 0.00 0.00 0.00 70 976.1
20260502214731 47 38 15.6 19.1 0.00 0.00 0.00 71 975.9
20260502213831 49 47 15.6 18.2 0.00 0.00 0.00 71 975.8
20260502212931 49 23 12.2 18.2 0.00 0.00 0.00 70 975.6
20260502211131 49 343 2.6 4.3 0.00 0.00 0.00 71 975.4
20260502210231 50 196 1.7 2.6 0.00 0.00 0.00 71 975.1
20260502205331 50 223 2.6 3.5 0.00 0.00 0.00 70 975.0
20260502204431 50 260 2.6 3.5 0.00 0.00 0.00 70 975.0
20260502203531 50 211 3.5 4.3 0.00 0.00 0.00 70 974.8
20260502202632 50 191 3.5 4.3 0.00 0.00 0.00 70 974.8
20260502200831 50 224 1.7 3.5 0.00 0.00 0.00 70 974.9
20260502195931 50 240 2.6 5.2 0.00 0.00 0.00 69 974.9
20260502195031 50 222 3.5 5.2 0.00 0.00 0.00 69 974.8
20260502194131 50 232 4.3 6.1 0.00 0.00 0.00 68 974.8
20260502193231 51 231 4.3 6.1 0.00 0.00 0.00 68 974.7
20260502191431 51 212 4.3 7.8 0.00 0.00 0.00 67 974.8
20260502190531 51 220 5.2 7.8 0.00 0.00 0.00 67 974.7
20260502185632 51 202 6.1 10.4 0.00 0.00 0.00 66 974.7
20260502183831 52 206 5.2 7.8 0.00 0.00 0.00 65 974.7
20260502182931 52 219 5.2 7.0 0.00 0.00 0.00 66 974.9
20260502182031 52 224 6.1 7.0 0.00 0.00 0.00 65 975.0
20260502181131 53 233 7.0 9.6 0.00 0.00 0.00 64 975.0
20260502180231 54 233 5.2 7.0 0.00 0.00 0.00 58 975.0
20260502164131 57 301 6.1 9.6 0.00 0.00 0.00 49 974.6
20260502163231 57 306 7.8 11.3 0.00 0.00 0.00 48 974.7
20260502162331 58 301 8.7 13.0 0.00 0.00 0.00 47 974.9
20260502161431 58 280 7.8 10.4 0.00 0.00 0.00 47 974.8
20260502160531 58 204 7.0 7.8 0.00 0.00 0.00 45 974.9
20260502152031 58 324 9.6 13.0 0.00 0.00 0.00 44 975.2
20260502151131 59 294 6.1 7.0 0.00 0.00 0.00 43 975.1
20260502150231 60 308 6.1 7.8 0.00 0.00 0.00 40 975.1
20260502130531 63 316 8.7 13.9 0.00 0.00 0.00 33 975.2
20260502122931 64 316 7.8 10.4 0.00 0.00 0.00 32 975.2
20260502122031 64 305 9.6 13.9 0.00 0.00 0.00 32 975.2
20260502121131 66 299 4.3 9.6 0.00 0.00 0.00 29 975.3
20260502120231 66 276 3.5 6.1 0.00 0.00 0.00 32 975.3
20260502115331 66 276 6.1 7.8 0.00 0.00 0.00 29 975.4
20260502113531 68 275 7.0 8.7 0.00 0.00 0.00 29 975.4
20260502112632 67 302 7.0 10.4 0.00 0.00 0.00 31 975.7
20260502111731 65 297 6.1 8.7 0.00 0.00 0.00 33 975.8
20260502110831 65 335 7.0 7.8 0.00 0.00 0.00 34 975.9
20260502105931 64 278 7.0 10.4 0.00 0.00 0.00 34 975.9
20260502104132 66 262 7.8 9.6 0.00 0.00 0.00 32 975.9
20260502103231 67 224 9.6 15.6 0.00 0.00 0.00 31 975.9
20260502102331 66 259 7.8 12.2 0.00 0.00 0.00 31 976.1
20260502101431 65 253 6.1 9.6 0.00 0.00 0.00 33 976.2
20260502100531 64 207 7.8 9.6 0.00 0.00 0.00 31 976.0
20260502091131 64 237 7.0 9.6 0.00 0.00 0.00 33 976.6
20260502090231 64 267 7.0 11.3 0.00 0.00 0.00 35 976.6
20260502070531 60 201 7.0 9.6 0.00 0.00 0.00 45 977.6
20260502065632 59 231 7.0 9.6 0.00 0.00 0.00 45 977.5
20260502064731 59 254 5.2 7.8 0.00 0.00 0.00 46 977.7
20260502063831 58 216 5.2 9.6 0.00 0.00 0.00 47 977.9
20260502062931 58 214 6.1 9.6 0.00 0.00 0.00 49 977.9
20260502062031 58 253 5.2 9.6 0.00 0.00 0.00 48 978.0
20260502061131 56 238 6.1 9.6 0.00 0.00 0.00 50 977.9
20260502060231 56 221 7.8 9.6 0.00 0.00 0.00 51 978.1
20260502054431 55 242 7.0 10.4 0.00 0.00 0.00 52 978.0
20260502053531 55 248 7.0 9.6 0.00 0.00 0.00 52 978.1
20260502052632 54 247 6.1 10.4 0.00 0.00 0.00 53 978.0
20260502050831 53 218 7.0 9.6 0.00 0.00 0.00 54 978.0
20260502045931 53 227 7.8 10.4 0.00 0.00 0.00 55 978.1
20260502045032 53 235 7.0 9.6 0.00 0.00 0.00 55 978.2
20260502044132 53 216 6.1 9.6 0.00 0.00 0.00 55 978.1
20260502041432 51 230 5.2 8.7 0.00 0.00 0.00 58 978.2
20260502040531 51 243 5.2 6.1 0.00 0.00 0.00 60 978.3
20260502035632 50 219 5.2 7.0 0.00 0.00 0.00 60 978.4
20260502034731 50 227 6.1 7.0 0.00 0.00 0.00 61 978.5
20260502033832 49 209 5.2 7.0 0.00 0.00 0.00 63 978.5
20260502032931 48 226 5.2 7.0 0.00 0.00 0.00 63 978.6
20260502031131 48 225 6.1 8.7 0.00 0.00 0.00 64 978.7
20260502030233 48 255 5.2 9.6 0.00 0.00 0.00 64 978.8
20260502025332 48 223 7.0 9.6 0.00 0.00 0.00 64 978.9
20260502024431 48 233 5.2 7.0 0.00 0.00 0.00 63 978.9
20260502023531 49 232 7.0 8.7 0.00 0.00 0.00 63 978.9